[[{"header":{"parameterUnit":"m.s-1","parameterCategory":1,"la1":30.2992,"la2":30.254,"lo1":-89.0895,"lo2":-89.0443,"dy":0.0025,"dx":0.0025,"nx":19,"ny":19,"refTime":"2026-05-05T03:00:00:Z","depth":0,"parameterNumber":2,"parameterNumberName":"U-component_of_WINDS"},"data":[0,0,0,-0.6197,-0.6196,-0.6151,-0.6151,-0.6101,-0.6101,0,0,0,0,0,0,0,0,0,0,0,-0.6214,-0.6214,-0.6197,-0.6196,-0.6151,-0.6151,-0.6101,-0.6101,0,0,0,0,0,0,0,0,0,0,0,-0.6214,-0.6214,-0.6214,-0.6196,-0.6151,-0.6151,-0.6101,-0.6132,0,0,0,0,0,0,0,0,0,0,-0.6174,-0.6195,-0.6214,-0.6214,-0.6195,-0.6151,-0.6151,-0.6133,-0.613,-0.6124,0,-0.612,0,-0.611,-0.6098,-0.6098,0,0,0,-0.6192,-0.6197,-0.6182,-0.6214,-0.6195,-0.6151,-0.617,-0.6132,-0.6128,-0.612,-0.612,-0.6118,-0.6109,-0.6097,-0.6097,-0.6078,-0.6078,0,0,-0.6194,-0.6208,-0.6184,-0.618,-0.6187,-0.6172,-0.6169,-0.6129,-0.6129,-0.6119,-0.6116,-0.6108,-0.6097,-0.6097,-0.6078,-0.6078,0,0,0,-0.6204,-0.621,-0.6195,-0.6182,-0.6173,-0.6171,-0.6167,-0.6131,-0.6125,-0.6116,-0.6108,-0.6097,-0.6096,-0.6078,-0.6078,-0.6096,0,0,0,-0.6205,-0.6216,-0.6196,-0.6204,-0.6174,-0.6152,-0.617,-0.6128,-0.6123,-0.6108,-0.6097,-0.6096,-0.6078,-0.6078,-0.6096,-0.6102,0,0,0,-0.6216,-0.6217,-0.6212,-0.6205,-0.6187,-0.6152,-0.6144,-0.6127,-0.6118,-0.6097,-0.6096,-0.6077,-0.6078,-0.6095,-0.6101,-0.6102,0,0,0,-0.623,-0.6227,-0.6213,-0.6206,-0.6187,-0.6164,-0.6144,-0.6126,-0.611,-0.6097,-0.6078,-0.6078,-0.6095,-0.61,-0.6102,-0.6106,-0.6109,0,0,-0.6234,-0.6228,-0.6224,-0.6209,-0.6193,-0.617,-0.6156,-0.6127,-0.6112,-0.609,-0.6089,-0.6096,-0.6101,-0.6102,-0.6121,-0.6124,0,0,0,-0.623,-0.6227,-0.6219,-0.6206,-0.6186,-0.6169,-0.6142,-0.6132,-0.6113,-0.6104,-0.6096,-0.6099,-0.6099,-0.61,-0.6102,-0.6102,-0.6079,-0.6079,-0.6079,-0.6254,-0.6237,-0.6229,-0.6207,-0.6194,-0.6168,-0.6156,-0.6138,-0.6122,-0.6121,-0.6114,-0.6128,-0.613,-0.6131,-0.6131,-0.6115,-0.6115,-0.6115,-0.6115,-0.6259,-0.6252,-0.6234,-0.622,-0.6202,-0.619,-0.6165,-0.6155,-0.6141,-0.613,-0.613,-0.612,-0.6135,-0.6134,-0.6116,-0.6116,-0.6116,-0.6115,-0.6115,-0.6273,-0.6267,-0.6256,-0.6237,-0.6224,-0.6202,-0.6191,-0.6174,-0.6158,-0.6157,-0.6149,-0.6149,-0.6147,-0.6155,-0.6155,-0.6155,-0.6155,-0.6155,-0.6155,-0.6291,-0.6279,-0.6272,-0.6252,-0.6243,-0.6229,-0.6204,-0.6194,-0.6179,-0.6168,-0.6168,-0.6154,-0.614,-0.6137,-0.6155,-0.6155,-0.6155,-0.6155,-0.6155,-0.6302,-0.6298,-0.6287,-0.6278,-0.6255,-0.6245,-0.6225,-0.6207,-0.6197,-0.6192,-0.6178,-0.6171,-0.6163,-0.6161,-0.6158,-0.6181,-0.6181,-0.6181,-0.6182,-0.6314,-0.631,-0.6296,-0.6283,-0.6269,-0.6251,-0.624,-0.6222,-0.6202,-0.6195,-0.6189,-0.6185,-0.6184,-0.6176,-0.6174,-0.6171,-0.6198,-0.6198,-0.6198,-0.6321,-0.6314,-0.6308,-0.629,-0.6272,-0.6257,-0.6247,-0.6233,-0.621,-0.6198,-0.6189,-0.6188,-0.6181,-0.6179,-0.6166,-0.6163,-0.6158,0,0]},{"header":{"parameterUnit":"m.s-1","parameterCategory":1,"la1":30.2992,"la2":30.254,"lo1":-89.0895,"lo2":-89.0443,"dy":0.0025,"dx":0.0025,"nx":19,"ny":19,"refTime":"2026-05-05T03:00:00:Z","depth":0,"parameterNumber":3,"parameterNumberName":"V-component_of_WINDS"},"data":[0,0,0,4.2143,4.2144,4.2159,4.2159,4.2199,4.2199,0,0,0,0,0,0,0,0,0,0,0,4.2151,4.2152,4.2143,4.2144,4.2159,4.2159,4.2198,4.2199,0,0,0,0,0,0,0,0,0,0,0,4.2151,4.2152,4.2153,4.2144,4.2159,4.2159,4.2198,4.218,0,0,0,0,0,0,0,0,0,0,4.2162,4.2181,4.2152,4.2153,4.2144,4.2159,4.2159,4.2178,4.2181,4.2201,0,4.2222,0,4.2211,4.2203,4.2203,0,0,0,4.2134,4.218,4.2172,4.2153,4.2144,4.2159,4.2149,4.2179,4.2182,4.2204,4.2222,4.2223,4.2212,4.2203,4.2204,4.2351,4.2352,0,0,4.2134,4.2161,4.217,4.2175,4.2174,4.2149,4.215,4.2181,4.2202,4.2222,4.2224,4.2213,4.2204,4.2204,4.235,4.2352,0,0,0,4.2138,4.2161,4.2152,4.2174,4.2175,4.215,4.2151,4.2201,4.2196,4.2224,4.2213,4.2204,4.2205,4.2349,4.2351,4.2434,0,0,0,4.2137,4.2163,4.2152,4.2169,4.2175,4.2188,4.2171,4.2194,4.2196,4.2213,4.2204,4.2206,4.2347,4.235,4.2429,4.2469,0,0,0,4.2146,4.2164,4.217,4.217,4.2178,4.2187,4.2183,4.2194,4.219,4.2203,4.2206,4.2347,4.2349,4.2424,4.2461,4.2517,0,0,0,4.2164,4.2243,4.2172,4.2257,4.2178,4.2238,4.2183,4.2226,4.2247,4.2205,4.2348,4.235,4.2423,4.2457,4.2512,4.2569,4.2595,0,0,4.2279,4.2258,4.2306,4.2242,4.2323,4.2234,4.2326,4.2319,4.2295,4.2334,4.2337,4.2431,4.2461,4.2516,4.2729,4.275,0,0,0,4.2352,4.2387,4.2402,4.2423,4.2421,4.2422,4.2398,4.2395,4.2427,4.2321,4.2464,4.2481,4.2512,4.2538,4.2556,4.2581,4.2363,4.2363,4.2363,4.2555,4.252,4.2597,4.2565,4.2587,4.2562,4.2577,4.2569,4.2527,4.2562,4.2574,4.2707,4.2738,4.2751,4.2779,4.26,4.26,4.26,4.26,4.2722,4.2766,4.2709,4.2764,4.2727,4.2772,4.2752,4.2721,4.2758,4.2695,4.2721,4.2656,4.2775,4.2797,4.2606,4.2605,4.2605,4.2604,4.2604,4.2852,4.2867,4.2863,4.2891,4.2917,4.2881,4.292,4.2885,4.2852,4.2877,4.2886,4.2885,4.288,4.2884,4.2884,4.2885,4.2885,4.2885,4.2886,4.2988,4.2981,4.3018,4.3023,4.3032,4.3041,4.3017,4.3026,4.3027,4.2998,4.2998,4.2954,4.2793,4.2754,4.2893,4.2891,4.289,4.289,4.2889,4.3172,4.3125,4.3183,4.3193,4.3195,4.3224,4.3178,4.32,4.3202,4.3222,4.3172,4.3059,4.3035,4.302,4.2988,4.3179,4.3179,4.3179,4.3179,4.3283,4.3267,4.3318,4.3337,4.3351,4.3316,4.3383,4.3366,4.334,4.334,4.3307,4.326,4.3247,4.3231,4.3212,4.3181,4.3417,4.3417,4.3417,4.3395,4.3379,4.3442,4.3417,4.3417,4.3418,4.348,4.3504,4.3465,4.3426,4.3339,4.3329,4.3253,4.3231,4.3191,4.3162,4.3105,0,0]}]]